Year,Month,Day,Hour,Minute,Value (Times are PST for temperature in C)
2009,06,04,00,00,19.60
2009,06,04,00,01,19.60
2009,06,04,00,02,19.60
2009,06,04,00,03,19.60
2009,06,04,00,04,19.60
2009,06,04,00,05,19.60
2009,06,04,00,06,19.60
2009,06,04,00,07,19.50
2009,06,04,00,08,19.50
2009,06,04,00,09,19.50
2009,06,04,00,10,19.40
2009,06,04,00,11,19.40
2009,06,04,00,12,19.40
2009,06,04,00,13,19.50
2009,06,04,00,14,19.50
2009,06,04,00,15,19.40
2009,06,04,00,16,19.40
2009,06,04,00,17,19.40
2009,06,04,00,18,19.30
2009,06,04,00,19,19.30
2009,06,04,00,20,19.30
2009,06,04,00,21,19.30
2009,06,04,00,22,19.30
2009,06,04,00,23,19.30
2009,06,04,00,24,19.20
2009,06,04,00,25,19.10
2009,06,04,00,26,19.00
2009,06,04,00,27,18.90
2009,06,04,00,28,18.80
2009,06,04,00,29,18.80
2009,06,04,00,30,18.70
2009,06,04,00,31,18.70
2009,06,04,00,32,18.60
2009,06,04,00,33,18.60
2009,06,04,00,34,18.70
2009,06,04,00,35,18.70
2009,06,04,00,36,18.70
2009,06,04,00,37,18.70
2009,06,04,00,38,18.70
2009,06,04,00,39,18.70
2009,06,04,00,40,18.60
2009,06,04,00,41,18.60
2009,06,04,00,42,18.60
2009,06,04,00,43,18.60
2009,06,04,00,44,18.60
2009,06,04,00,45,18.50
2009,06,04,00,46,18.50
2009,06,04,00,47,18.40
2009,06,04,00,48,18.40
2009,06,04,00,49,18.30
2009,06,04,00,50,18.30
2009,06,04,00,51,18.30
2009,06,04,00,52,18.20
2009,06,04,00,53,18.20
2009,06,04,00,54,18.20
2009,06,04,00,55,18.10
2009,06,04,00,56,18.10
2009,06,04,00,57,18.00
2009,06,04,00,58,18.00
2009,06,04,00,59,18.00
2009,06,04,01,00,18.00
2009,06,04,01,01,18.10
2009,06,04,01,02,18.10
2009,06,04,01,03,18.10
2009,06,04,01,04,18.10
2009,06,04,01,05,18.10
2009,06,04,01,06,18.10
2009,06,04,01,07,18.10
2009,06,04,01,08,18.10
2009,06,04,01,09,18.10
2009,06,04,01,10,18.20
2009,06,04,01,11,18.10
2009,06,04,01,12,18.00
2009,06,04,01,13,18.00
2009,06,04,01,14,17.90
2009,06,04,01,15,17.90
2009,06,04,01,16,17.90
2009,06,04,01,17,17.80
2009,06,04,01,18,17.80
2009,06,04,01,19,17.80
2009,06,04,01,20,17.80
2009,06,04,01,21,17.80
2009,06,04,01,22,17.80
2009,06,04,01,23,17.80
2009,06,04,01,24,17.70
2009,06,04,01,25,17.70
2009,06,04,01,26,17.70
2009,06,04,01,27,17.70
2009,06,04,01,28,17.70
2009,06,04,01,29,17.60
2009,06,04,01,30,17.60
2009,06,04,01,31,17.60
2009,06,04,01,32,17.60
2009,06,04,01,33,17.50
2009,06,04,01,34,17.50
2009,06,04,01,35,17.40
2009,06,04,01,36,17.40
2009,06,04,01,37,17.40
2009,06,04,01,38,17.30
2009,06,04,01,39,17.30
2009,06,04,01,40,17.30
2009,06,04,01,41,17.20
2009,06,04,01,42,17.20
2009,06,04,01,43,17.20
2009,06,04,01,44,17.20
2009,06,04,01,45,17.20
2009,06,04,01,46,17.20
2009,06,04,01,47,17.20
2009,06,04,01,48,17.20
2009,06,04,01,49,17.20
2009,06,04,01,50,17.20
2009,06,04,01,51,17.20
2009,06,04,01,52,17.10
2009,06,04,01,53,17.10
2009,06,04,01,54,17.10
2009,06,04,01,55,17.00
2009,06,04,01,56,17.00
2009,06,04,01,57,16.90
2009,06,04,01,58,16.90
2009,06,04,01,59,16.90
2009,06,04,02,00,16.80
2009,06,04,02,01,16.80
2009,06,04,02,02,16.80
2009,06,04,02,03,16.80
2009,06,04,02,04,16.80
2009,06,04,02,05,16.80
2009,06,04,02,06,16.70
2009,06,04,02,07,16.70
2009,06,04,02,08,16.60
2009,06,04,02,09,16.60
2009,06,04,02,10,16.50
2009,06,04,02,11,16.30
2009,06,04,02,12,16.20
2009,06,04,02,13,16.00
2009,06,04,02,14,15.90
2009,06,04,02,15,15.80
2009,06,04,02,16,15.70
2009,06,04,02,17,15.50
2009,06,04,02,18,15.40
2009,06,04,02,19,15.30
2009,06,04,02,20,15.10
2009,06,04,02,21,15.00
2009,06,04,02,22,15.00
2009,06,04,02,23,14.90
2009,06,04,02,24,14.70
2009,06,04,02,25,14.60
2009,06,04,02,26,14.50
2009,06,04,02,27,14.50
2009,06,04,02,28,14.30
2009,06,04,02,29,14.30
2009,06,04,02,30,14.20
2009,06,04,02,31,14.20
2009,06,04,02,32,14.10
2009,06,04,02,33,14.00
2009,06,04,02,34,14.00
2009,06,04,02,35,13.90
2009,06,04,02,36,13.90
2009,06,04,02,37,13.90
2009,06,04,02,38,13.90
2009,06,04,02,39,13.90
2009,06,04,02,40,13.90
2009,06,04,02,41,14.00
2009,06,04,02,42,14.00
2009,06,04,02,43,14.10
2009,06,04,02,44,14.20
2009,06,04,02,45,14.20
2009,06,04,02,46,14.30
2009,06,04,02,47,14.30
2009,06,04,02,48,14.30
2009,06,04,02,49,14.30
2009,06,04,02,50,14.40
2009,06,04,02,51,14.40
2009,06,04,02,52,14.40
2009,06,04,02,53,14.50
2009,06,04,02,54,14.50
2009,06,04,02,55,14.60
2009,06,04,02,56,14.60
2009,06,04,02,57,14.60
2009,06,04,02,58,14.60
2009,06,04,02,59,14.60
2009,06,04,03,00,14.60
2009,06,04,03,01,14.60
2009,06,04,03,02,14.60
2009,06,04,03,03,14.70
2009,06,04,03,04,14.70
2009,06,04,03,05,14.70
2009,06,04,03,06,14.70
2009,06,04,03,07,14.70
2009,06,04,03,08,14.70
2009,06,04,03,09,14.70
2009,06,04,03,10,14.70
2009,06,04,03,11,14.70
2009,06,04,03,12,14.60
2009,06,04,03,13,14.60
2009,06,04,03,14,14.60
2009,06,04,03,15,14.60
2009,06,04,03,16,14.60
2009,06,04,03,17,14.60
2009,06,04,03,18,14.50
2009,06,04,03,19,14.50
2009,06,04,03,20,14.50
2009,06,04,03,21,14.40
2009,06,04,03,22,14.40
2009,06,04,03,23,14.40
2009,06,04,03,24,14.40
2009,06,04,03,25,14.30
2009,06,04,03,26,14.30
2009,06,04,03,27,14.30
2009,06,04,03,28,14.20
2009,06,04,03,29,14.20
2009,06,04,03,30,14.20
2009,06,04,03,31,14.20
2009,06,04,03,32,14.10
2009,06,04,03,33,14.10
2009,06,04,03,34,14.10
2009,06,04,03,35,14.10
2009,06,04,03,36,14.10
2009,06,04,03,37,14.10
2009,06,04,03,38,14.10
2009,06,04,03,39,14.00
2009,06,04,03,40,14.00
2009,06,04,03,41,14.00
2009,06,04,03,42,13.90
2009,06,04,03,43,13.90
2009,06,04,03,44,13.90
2009,06,04,03,45,13.90
2009,06,04,03,46,13.90
2009,06,04,03,47,13.90
2009,06,04,03,48,13.90
2009,06,04,03,49,13.90
2009,06,04,03,50,13.90
2009,06,04,03,51,13.90
2009,06,04,03,52,13.80
2009,06,04,03,53,13.80
2009,06,04,03,54,13.80
2009,06,04,03,55,13.80
2009,06,04,03,56,13.80
2009,06,04,03,57,13.80
2009,06,04,03,58,13.80
2009,06,04,03,59,13.80
2009,06,04,04,00,13.80
2009,06,04,04,01,13.80
2009,06,04,04,02,13.80
2009,06,04,04,03,13.80
2009,06,04,04,04,13.80
2009,06,04,04,05,13.80
2009,06,04,04,06,13.70
2009,06,04,04,07,13.70
2009,06,04,04,08,13.70
2009,06,04,04,09,13.70
2009,06,04,04,10,13.70
2009,06,04,04,11,13.70
2009,06,04,04,12,13.70
2009,06,04,04,13,13.70
2009,06,04,04,14,13.80
2009,06,04,04,15,13.80
2009,06,04,04,16,13.80
2009,06,04,04,17,13.80
2009,06,04,04,18,13.80
2009,06,04,04,19,13.80
2009,06,04,04,20,13.80
2009,06,04,04,21,13.80
2009,06,04,04,22,13.80
2009,06,04,04,23,13.80
2009,06,04,04,24,13.70
2009,06,04,04,25,13.70
2009,06,04,04,26,13.70
2009,06,04,04,27,13.70
2009,06,04,04,28,13.70
2009,06,04,04,29,13.70
2009,06,04,04,30,13.70
2009,06,04,04,31,13.70
2009,06,04,04,32,13.70
2009,06,04,04,33,13.70
2009,06,04,04,34,13.70
2009,06,04,04,35,13.70
2009,06,04,04,36,13.70
2009,06,04,04,37,13.70
2009,06,04,04,38,13.70
2009,06,04,04,39,13.70
2009,06,04,04,40,13.70
2009,06,04,04,41,13.70
2009,06,04,04,42,13.70
2009,06,04,04,43,13.70
2009,06,04,04,44,13.80
2009,06,04,04,45,13.80
2009,06,04,04,46,13.80
2009,06,04,04,47,13.80
2009,06,04,04,48,13.80
2009,06,04,04,49,13.80
2009,06,04,04,50,13.80
2009,06,04,04,51,13.80
2009,06,04,04,52,13.70
2009,06,04,04,53,13.70
2009,06,04,04,54,13.70
2009,06,04,04,55,13.70
2009,06,04,04,56,13.70
2009,06,04,04,57,13.70
2009,06,04,04,58,13.70
2009,06,04,04,59,13.70
2009,06,04,05,00,13.70
2009,06,04,05,01,13.70
2009,06,04,05,02,13.70
2009,06,04,05,03,13.70
2009,06,04,05,04,13.70
2009,06,04,05,05,13.70
2009,06,04,05,06,13.70
2009,06,04,05,07,13.70
2009,06,04,05,08,13.70
2009,06,04,05,09,13.70
2009,06,04,05,10,13.70
2009,06,04,05,11,13.70
2009,06,04,05,12,13.70
2009,06,04,05,13,13.70
2009,06,04,05,14,13.70
2009,06,04,05,15,13.70
2009,06,04,05,16,13.70
2009,06,04,05,17,13.70
2009,06,04,05,18,13.70
2009,06,04,05,19,13.70
2009,06,04,05,20,13.70
2009,06,04,05,21,13.70
2009,06,04,05,22,13.80
2009,06,04,05,23,13.80
2009,06,04,05,24,13.90
2009,06,04,05,25,14.00
2009,06,04,05,26,14.10
2009,06,04,05,27,14.40
2009,06,04,05,28,14.60
2009,06,04,05,29,14.80
2009,06,04,05,30,15.00
2009,06,04,05,31,15.00
2009,06,04,05,32,15.20
2009,06,04,05,33,15.40
2009,06,04,05,34,15.40
2009,06,04,05,35,15.60
2009,06,04,05,36,15.80
2009,06,04,05,37,16.00
2009,06,04,05,38,16.10
2009,06,04,05,39,16.30
2009,06,04,05,40,16.40
2009,06,04,05,41,16.50
2009,06,04,05,42,16.60
2009,06,04,05,43,16.70
2009,06,04,05,44,16.80
2009,06,04,05,45,16.90
2009,06,04,05,46,17.10
2009,06,04,05,47,17.20
2009,06,04,05,48,17.30
2009,06,04,05,49,17.40
2009,06,04,05,50,17.40
2009,06,04,05,51,17.50
2009,06,04,05,52,17.60
2009,06,04,05,53,17.60
2009,06,04,05,54,17.60
2009,06,04,05,55,17.60
2009,06,04,05,56,17.70
2009,06,04,05,57,17.70
2009,06,04,05,58,17.70
2009,06,04,05,59,17.70
2009,06,04,06,00,17.70
2009,06,04,06,01,17.70
2009,06,04,06,02,17.70
2009,06,04,06,03,17.70
2009,06,04,06,04,17.70
2009,06,04,06,05,17.60
2009,06,04,06,06,17.60
2009,06,04,06,07,17.60
2009,06,04,06,08,17.60
2009,06,04,06,09,17.50
2009,06,04,06,10,17.40
2009,06,04,06,11,17.30
2009,06,04,06,12,17.30
2009,06,04,06,13,17.30
2009,06,04,06,14,17.30
2009,06,04,06,15,17.30
2009,06,04,06,16,17.30
2009,06,04,06,17,17.30
2009,06,04,06,18,17.30
2009,06,04,06,19,17.30
2009,06,04,06,20,17.30
2009,06,04,06,21,17.30
2009,06,04,06,22,17.40
2009,06,04,06,23,17.40
2009,06,04,06,24,17.40
2009,06,04,06,25,17.40
2009,06,04,06,26,17.40
2009,06,04,06,27,17.50
2009,06,04,06,28,17.50
2009,06,04,06,29,17.60
2009,06,04,06,30,17.60
2009,06,04,06,31,17.60
2009,06,04,06,32,17.70
2009,06,04,06,33,17.80
2009,06,04,06,34,17.90
2009,06,04,06,35,17.90
2009,06,04,06,36,18.00
2009,06,04,06,37,18.10
2009,06,04,06,38,18.20
2009,06,04,06,39,18.30
2009,06,04,06,40,18.30
2009,06,04,06,41,18.40
2009,06,04,06,42,18.50
2009,06,04,06,43,18.60
2009,06,04,06,44,18.60
2009,06,04,06,45,18.70
2009,06,04,06,46,18.70
2009,06,04,06,47,18.80
2009,06,04,06,48,18.80
2009,06,04,06,49,18.80
2009,06,04,06,50,18.90
2009,06,04,06,51,18.90
2009,06,04,06,52,18.80
2009,06,04,06,53,18.80
2009,06,04,06,54,18.90
2009,06,04,06,55,18.90
2009,06,04,06,56,18.90
2009,06,04,06,57,18.90
2009,06,04,06,58,18.90
2009,06,04,06,59,18.90
2009,06,04,07,00,18.90
2009,06,04,07,01,18.90
2009,06,04,07,02,19.00
2009,06,04,07,03,19.00
2009,06,04,07,04,19.10
2009,06,04,07,05,19.10
2009,06,04,07,06,19.10
2009,06,04,07,07,19.10
2009,06,04,07,08,19.20
2009,06,04,07,09,19.20
2009,06,04,07,10,19.30
2009,06,04,07,11,19.30
2009,06,04,07,12,19.30
2009,06,04,07,13,19.30
2009,06,04,07,14,19.30
2009,06,04,07,15,19.30
2009,06,04,07,16,19.30
2009,06,04,07,17,19.30
2009,06,04,07,18,19.20
2009,06,04,07,19,19.30
2009,06,04,07,20,19.30
2009,06,04,07,21,19.30
2009,06,04,07,22,19.40
2009,06,04,07,23,19.40
2009,06,04,07,24,19.50
2009,06,04,07,25,19.60
2009,06,04,07,26,19.70
2009,06,04,07,27,19.70
2009,06,04,07,28,19.80
2009,06,04,07,29,19.90
2009,06,04,07,30,20.00
2009,06,04,07,31,20.00
2009,06,04,07,32,20.00
2009,06,04,07,33,20.10
2009,06,04,07,34,20.20
2009,06,04,07,35,20.20
2009,06,04,07,36,20.20
2009,06,04,07,37,20.30
2009,06,04,07,38,20.30
2009,06,04,07,39,20.30
2009,06,04,07,40,20.40
2009,06,04,07,41,20.40
2009,06,04,07,42,20.50
2009,06,04,07,43,20.60
2009,06,04,07,44,20.70
2009,06,04,07,45,20.70
2009,06,04,07,46,20.70
2009,06,04,07,47,20.80
2009,06,04,07,48,20.90
2009,06,04,07,49,20.90
2009,06,04,07,50,21.00
2009,06,04,07,51,21.00
2009,06,04,07,52,21.10
2009,06,04,07,53,21.10
2009,06,04,07,54,21.20
2009,06,04,07,55,21.20
2009,06,04,07,56,21.20
2009,06,04,07,57,21.20
2009,06,04,07,58,21.30
2009,06,04,07,59,21.30
2009,06,04,08,00,21.30
2009,06,04,08,01,21.30
2009,06,04,08,02,21.30
2009,06,04,08,03,21.40
2009,06,04,08,04,21.40
2009,06,04,08,05,21.40
2009,06,04,08,06,21.40
2009,06,04,08,07,21.40
2009,06,04,08,08,21.40
2009,06,04,08,09,21.40
2009,06,04,08,10,21.40
2009,06,04,08,11,21.50
2009,06,04,08,12,21.50
2009,06,04,08,13,21.50
2009,06,04,08,14,21.50
2009,06,04,08,15,21.50
2009,06,04,08,16,21.50
2009,06,04,08,17,21.50
2009,06,04,08,18,21.60
2009,06,04,08,19,21.70
2009,06,04,08,20,21.70
2009,06,04,08,21,21.80
2009,06,04,08,22,21.80
2009,06,04,08,23,21.80
2009,06,04,08,24,21.80
2009,06,04,08,25,21.90
2009,06,04,08,26,21.90
2009,06,04,08,27,22.00
2009,06,04,08,28,22.00
2009,06,04,08,29,22.10
2009,06,04,08,30,22.10
2009,06,04,08,31,22.10
2009,06,04,08,32,22.10
2009,06,04,08,33,22.10
2009,06,04,08,34,22.10
2009,06,04,08,35,22.20
2009,06,04,08,36,22.20
2009,06,04,08,37,22.30
2009,06,04,08,38,22.30
2009,06,04,08,39,22.40
2009,06,04,08,40,22.40
2009,06,04,08,41,22.50
2009,06,04,08,42,22.50
2009,06,04,08,43,22.60
2009,06,04,08,44,22.60
2009,06,04,08,45,22.60
2009,06,04,08,46,22.50
2009,06,04,08,47,22.50
2009,06,04,08,48,22.50
2009,06,04,08,49,22.50
2009,06,04,08,50,22.50
2009,06,04,08,51,22.50
2009,06,04,08,52,22.60
2009,06,04,08,53,22.60
2009,06,04,08,54,22.60
2009,06,04,08,55,22.60
2009,06,04,08,56,22.70
2009,06,04,08,57,22.80
2009,06,04,08,58,22.80
2009,06,04,08,59,22.90
2009,06,04,09,00,23.00
2009,06,04,09,01,23.00
2009,06,04,09,02,23.00
2009,06,04,09,03,23.00
2009,06,04,09,04,23.10
2009,06,04,09,05,23.20
2009,06,04,09,06,23.30
2009,06,04,09,07,23.30
2009,06,04,09,08,23.40
2009,06,04,09,09,23.40
2009,06,04,09,10,23.40
2009,06,04,09,11,23.40
2009,06,04,09,12,23.50
2009,06,04,09,13,23.50
2009,06,04,09,14,23.60
2009,06,04,09,15,23.60
2009,06,04,09,16,23.70
2009,06,04,09,17,23.70
2009,06,04,09,18,23.70
2009,06,04,09,19,23.70
2009,06,04,09,20,23.70
2009,06,04,09,21,23.70
2009,06,04,09,22,23.70
2009,06,04,09,23,23.70
2009,06,04,09,24,23.70
2009,06,04,09,25,23.80
2009,06,04,09,26,23.80
2009,06,04,09,27,23.90
2009,06,04,09,28,23.90
2009,06,04,09,29,24.00
2009,06,04,09,30,24.10
2009,06,04,09,31,24.10
2009,06,04,09,32,24.00
2009,06,04,09,33,24.00
2009,06,04,09,34,23.90
2009,06,04,09,35,23.90
2009,06,04,09,36,23.90
2009,06,04,09,37,24.00
2009,06,04,09,38,24.10
2009,06,04,09,39,24.10
2009,06,04,09,40,24.10
2009,06,04,09,41,24.20
2009,06,04,09,42,24.20
2009,06,04,09,43,24.20
2009,06,04,09,44,24.20
2009,06,04,09,45,24.20
2009,06,04,09,46,24.20
2009,06,04,09,47,24.20
2009,06,04,09,48,24.20
2009,06,04,09,49,24.20
2009,06,04,09,50,24.20
2009,06,04,09,51,24.30
2009,06,04,09,52,24.30
2009,06,04,09,53,24.30
2009,06,04,09,54,24.30
2009,06,04,09,55,24.30
2009,06,04,09,56,24.30
2009,06,04,09,57,24.30
2009,06,04,09,58,24.30
2009,06,04,09,59,24.30
2009,06,04,10,00,24.30
2009,06,04,10,01,24.20
2009,06,04,10,02,24.30
2009,06,04,10,03,24.30
2009,06,04,10,04,24.40
2009,06,04,10,05,24.40
2009,06,04,10,06,24.40
2009,06,04,10,07,24.50
2009,06,04,10,08,24.50
2009,06,04,10,09,24.50
2009,06,04,10,10,24.30
2009,06,04,10,11,24.30
2009,06,04,10,12,24.20
2009,06,04,10,13,24.20
2009,06,04,10,14,24.20
2009,06,04,10,15,24.10
2009,06,04,10,16,24.10
2009,06,04,10,17,24.10
2009,06,04,10,18,24.20
2009,06,04,10,19,24.20
2009,06,04,10,20,24.40
2009,06,04,10,21,24.50
2009,06,04,10,22,24.60
2009,06,04,10,23,24.70
2009,06,04,10,24,24.70
2009,06,04,10,25,24.80
2009,06,04,10,26,24.90
2009,06,04,10,27,24.80
2009,06,04,10,28,24.80
2009,06,04,10,29,24.70
2009,06,04,10,30,24.70
2009,06,04,10,31,24.60
2009,06,04,10,32,24.60
2009,06,04,10,33,24.60
2009,06,04,10,34,24.60
2009,06,04,10,35,24.70
2009,06,04,10,36,24.80
2009,06,04,10,37,24.90
2009,06,04,10,38,25.00
2009,06,04,10,39,25.10
2009,06,04,10,40,25.20
2009,06,04,10,41,25.30
2009,06,04,10,42,25.30
2009,06,04,10,43,25.40
2009,06,04,10,44,25.50
2009,06,04,10,45,25.60
2009,06,04,10,46,25.70
2009,06,04,10,47,25.80
2009,06,04,10,48,25.90
2009,06,04,10,49,25.90
2009,06,04,10,50,25.90
2009,06,04,10,51,25.90
2009,06,04,10,52,25.90
2009,06,04,10,53,25.90
2009,06,04,10,54,25.90
2009,06,04,10,55,25.90
2009,06,04,10,56,25.80
2009,06,04,10,57,25.80
2009,06,04,10,58,25.70
2009,06,04,10,59,25.60
2009,06,04,11,00,25.60
2009,06,04,11,01,25.70
2009,06,04,11,02,25.80
2009,06,04,11,03,25.80
2009,06,04,11,04,25.90
2009,06,04,11,05,25.90
2009,06,04,11,06,25.90
2009,06,04,11,07,25.90
2009,06,04,11,08,25.90
2009,06,04,11,09,26.00
2009,06,04,11,10,26.10
2009,06,04,11,11,26.20
2009,06,04,11,12,26.20
2009,06,04,11,13,26.30
2009,06,04,11,14,26.20
2009,06,04,11,15,26.10
2009,06,04,11,16,26.00
2009,06,04,11,17,25.90
2009,06,04,11,18,25.60
2009,06,04,11,19,25.40
2009,06,04,11,20,25.20
2009,06,04,11,21,24.90
2009,06,04,11,22,24.60
2009,06,04,11,23,24.30
2009,06,04,11,24,24.10
2009,06,04,11,25,23.90
2009,06,04,11,26,23.80
2009,06,04,11,27,23.70
2009,06,04,11,28,23.70
2009,06,04,11,29,23.80
2009,06,04,11,30,23.80
2009,06,04,11,31,23.80
2009,06,04,11,32,23.80
2009,06,04,11,33,23.70
2009,06,04,11,34,23.80
2009,06,04,11,35,23.90
2009,06,04,11,36,23.90
2009,06,04,11,37,23.90
2009,06,04,11,38,23.90
2009,06,04,11,39,23.90
2009,06,04,11,40,23.90
2009,06,04,11,41,23.80
2009,06,04,11,42,23.70
2009,06,04,11,43,23.70
2009,06,04,11,44,23.50
2009,06,04,11,45,23.50
2009,06,04,11,46,23.40
2009,06,04,11,47,23.40
2009,06,04,11,48,23.30
2009,06,04,11,49,23.20
2009,06,04,11,50,23.20
2009,06,04,11,51,23.20
2009,06,04,11,52,23.20
2009,06,04,11,53,23.30
2009,06,04,11,54,23.40
2009,06,04,11,55,23.50
2009,06,04,11,56,23.70
2009,06,04,11,57,23.80
2009,06,04,11,58,23.80
2009,06,04,11,59,23.80
2009,06,04,12,00,23.80
2009,06,04,12,01,23.70
2009,06,04,12,02,23.70
2009,06,04,12,03,23.70
2009,06,04,12,04,23.60
2009,06,04,12,05,23.70
2009,06,04,12,06,23.80
2009,06,04,12,07,24.00
2009,06,04,12,08,24.10
2009,06,04,12,09,24.10
2009,06,04,12,10,24.20
2009,06,04,12,11,24.30
2009,06,04,12,12,24.30
2009,06,04,12,13,24.30
2009,06,04,12,14,24.40
2009,06,04,12,15,24.50
2009,06,04,12,16,24.60
2009,06,04,12,17,24.70
2009,06,04,12,18,24.70
2009,06,04,12,19,24.80
2009,06,04,12,20,24.90
2009,06,04,12,21,25.00
2009,06,04,12,22,25.10
2009,06,04,12,23,25.10
2009,06,04,12,24,25.20
2009,06,04,12,25,25.20
2009,06,04,12,26,25.20
2009,06,04,12,27,25.20
2009,06,04,12,28,25.30
2009,06,04,12,29,25.30
2009,06,04,12,30,25.20
2009,06,04,12,31,25.20
2009,06,04,12,32,25.20
2009,06,04,12,33,25.20
2009,06,04,12,34,25.20
2009,06,04,12,35,25.30
2009,06,04,12,36,25.30
2009,06,04,12,37,25.40
2009,06,04,12,38,25.50
2009,06,04,12,39,25.50
2009,06,04,12,40,25.50
2009,06,04,12,41,25.60
2009,06,04,12,42,25.60
2009,06,04,12,43,25.60
2009,06,04,12,44,25.60
2009,06,04,12,45,25.60
2009,06,04,12,46,25.60
2009,06,04,12,47,25.70
2009,06,04,12,48,25.80
2009,06,04,12,49,25.90
2009,06,04,12,50,25.90
2009,06,04,12,51,25.90
2009,06,04,12,52,26.00
2009,06,04,12,53,26.00
2009,06,04,12,54,26.10
2009,06,04,12,55,26.10
2009,06,04,12,56,26.10
2009,06,04,12,57,26.00
2009,06,04,12,58,26.00
2009,06,04,12,59,26.00
2009,06,04,13,00,26.00
2009,06,04,13,01,26.10
2009,06,04,13,02,26.20
2009,06,04,13,03,26.10
2009,06,04,13,04,26.10
2009,06,04,13,05,26.10
2009,06,04,13,06,26.20
2009,06,04,13,07,26.20
2009,06,04,13,08,26.30
2009,06,04,13,09,26.30
2009,06,04,13,10,26.30
2009,06,04,13,11,26.40
2009,06,04,13,12,26.40
2009,06,04,13,13,26.50
2009,06,04,13,14,26.40
2009,06,04,13,15,26.50
2009,06,04,13,16,26.50
2009,06,04,13,17,26.60
2009,06,04,13,18,26.60
2009,06,04,13,19,26.70
2009,06,04,13,20,26.80
2009,06,04,13,21,26.80
2009,06,04,13,22,26.90
2009,06,04,13,23,26.80
2009,06,04,13,24,26.80
2009,06,04,13,25,26.80
2009,06,04,13,26,26.90
2009,06,04,13,27,26.90
2009,06,04,13,28,26.90
2009,06,04,13,29,26.80
2009,06,04,13,30,26.70
2009,06,04,13,31,26.60
2009,06,04,13,32,26.50
2009,06,04,13,33,26.50
2009,06,04,13,34,26.60
2009,06,04,13,35,26.60
2009,06,04,13,36,26.60
2009,06,04,13,37,26.70
2009,06,04,13,38,26.70
2009,06,04,13,39,26.80
2009,06,04,13,40,26.80
2009,06,04,13,41,26.70
2009,06,04,13,42,26.70
2009,06,04,13,43,26.70
2009,06,04,13,44,26.60
2009,06,04,13,45,26.60
2009,06,04,13,46,26.50
2009,06,04,13,47,26.40
2009,06,04,13,48,26.40
2009,06,04,13,49,26.50
2009,06,04,13,50,26.60
2009,06,04,13,51,26.70
2009,06,04,13,52,26.70
2009,06,04,13,53,26.70
2009,06,04,13,54,26.70
2009,06,04,13,55,26.70
2009,06,04,13,56,26.70
2009,06,04,13,57,26.70
2009,06,04,13,58,26.70
2009,06,04,13,59,26.60
2009,06,04,14,00,26.50
2009,06,04,14,01,26.50
2009,06,04,14,02,26.40
2009,06,04,14,03,26.20
2009,06,04,14,04,26.10
2009,06,04,14,05,26.00
2009,06,04,14,06,25.90
2009,06,04,14,07,25.90
2009,06,04,14,08,25.90
2009,06,04,14,09,25.80
2009,06,04,14,10,25.80
2009,06,04,14,11,25.70
2009,06,04,14,12,25.70
2009,06,04,14,13,25.70
2009,06,04,14,14,25.80
2009,06,04,14,15,26.00
2009,06,04,14,16,26.30
2009,06,04,14,17,26.50
2009,06,04,14,18,26.50
2009,06,04,14,19,26.70
2009,06,04,14,20,26.80
2009,06,04,14,21,26.90
2009,06,04,14,22,27.00
2009,06,04,14,23,27.00
2009,06,04,14,24,26.90
2009,06,04,14,25,26.90
2009,06,04,14,26,26.80
2009,06,04,14,27,26.90
2009,06,04,14,28,26.90
2009,06,04,14,29,27.00
2009,06,04,14,30,27.00
2009,06,04,14,31,27.00
2009,06,04,14,32,27.00
2009,06,04,14,33,27.10
2009,06,04,14,34,27.10
2009,06,04,14,35,27.10
2009,06,04,14,36,27.10
2009,06,04,14,37,27.20
2009,06,04,14,38,27.30
2009,06,04,14,39,27.40
2009,06,04,14,40,27.50
2009,06,04,14,41,27.60
2009,06,04,14,42,27.70
2009,06,04,14,43,27.80
2009,06,04,14,44,27.90
2009,06,04,14,45,27.90
2009,06,04,14,46,28.00
2009,06,04,14,47,28.00
2009,06,04,14,48,28.10
2009,06,04,14,49,28.10
2009,06,04,14,50,28.10
2009,06,04,14,51,28.20
2009,06,04,14,52,28.20
2009,06,04,14,53,28.30
2009,06,04,14,54,28.30
2009,06,04,14,55,28.30
2009,06,04,14,56,28.30
2009,06,04,14,57,28.30
2009,06,04,14,58,28.30
2009,06,04,14,59,28.40
2009,06,04,15,00,28.50
2009,06,04,15,01,28.60
2009,06,04,15,02,28.70
2009,06,04,15,03,28.80
2009,06,04,15,04,28.80
2009,06,04,15,05,29.00
2009,06,04,15,06,29.10
2009,06,04,15,07,29.20
2009,06,04,15,08,29.30
2009,06,04,15,09,29.20
2009,06,04,15,10,29.20
2009,06,04,15,11,29.30
2009,06,04,15,12,29.40
2009,06,04,15,13,29.50
2009,06,04,15,14,29.40
2009,06,04,15,15,29.50
2009,06,04,15,16,29.50
2009,06,04,15,17,29.60
2009,06,04,15,18,29.70
2009,06,04,15,19,29.60
2009,06,04,15,20,29.50
2009,06,04,15,21,29.20
2009,06,04,15,22,28.90
2009,06,04,15,23,28.60
2009,06,04,15,24,28.30
2009,06,04,15,25,28.20
2009,06,04,15,26,28.10
2009,06,04,15,27,28.00
2009,06,04,15,28,27.80
2009,06,04,15,29,27.60
2009,06,04,15,30,27.50
2009,06,04,15,31,27.50
2009,06,04,15,32,27.40
2009,06,04,15,33,27.40
2009,06,04,15,34,27.30
2009,06,04,15,35,27.20
2009,06,04,15,36,27.20
2009,06,04,15,37,27.30
2009,06,04,15,38,27.40
2009,06,04,15,39,27.60
2009,06,04,15,40,27.80
2009,06,04,15,41,27.90
2009,06,04,15,42,28.00
2009,06,04,15,43,28.10
2009,06,04,15,44,28.30
2009,06,04,15,45,28.40
2009,06,04,15,46,28.60
2009,06,04,15,47,28.70
2009,06,04,15,48,28.80
2009,06,04,15,49,28.90
2009,06,04,15,50,28.90
2009,06,04,15,51,29.10
2009,06,04,15,52,29.20
2009,06,04,15,53,29.30
2009,06,04,15,54,29.50
2009,06,04,15,55,29.50
2009,06,04,15,56,29.60
2009,06,04,15,57,29.70
2009,06,04,15,58,29.60
2009,06,04,15,59,29.40
2009,06,04,16,00,29.10
2009,06,04,16,01,28.70
2009,06,04,16,02,28.30
2009,06,04,16,03,28.10
2009,06,04,16,04,27.90
2009,06,04,16,05,27.70
2009,06,04,16,06,27.50
2009,06,04,16,07,27.30
2009,06,04,16,08,27.20
2009,06,04,16,09,27.00
2009,06,04,16,10,26.80
2009,06,04,16,11,26.80
2009,06,04,16,12,26.70
2009,06,04,16,13,26.70
2009,06,04,16,14,26.60
2009,06,04,16,15,26.50
2009,06,04,16,16,26.40
2009,06,04,16,17,26.30
2009,06,04,16,18,26.30
2009,06,04,16,19,26.30
2009,06,04,16,20,26.20
2009,06,04,16,21,26.20
2009,06,04,16,22,26.20
2009,06,04,16,23,26.10
2009,06,04,16,24,26.10
2009,06,04,16,25,26.10
2009,06,04,16,26,26.10
2009,06,04,16,27,26.10
2009,06,04,16,28,26.20
2009,06,04,16,29,26.30
2009,06,04,16,30,26.50
2009,06,04,16,31,26.70
2009,06,04,16,32,26.90
2009,06,04,16,33,27.10
2009,06,04,16,34,27.20
2009,06,04,16,35,27.40
2009,06,04,16,36,27.50
2009,06,04,16,37,27.70
2009,06,04,16,38,27.90
2009,06,04,16,39,28.10
2009,06,04,16,40,28.30
2009,06,04,16,41,28.40
2009,06,04,16,42,28.60
2009,06,04,16,43,28.70
2009,06,04,16,44,28.80
2009,06,04,16,45,28.80
2009,06,04,16,46,29.00
2009,06,04,16,47,29.10
2009,06,04,16,48,29.10
2009,06,04,16,49,29.10
2009,06,04,16,50,29.10
2009,06,04,16,51,29.10
2009,06,04,16,52,29.10
2009,06,04,16,53,29.20
2009,06,04,16,54,29.20
2009,06,04,16,55,29.20
2009,06,04,16,56,29.20
2009,06,04,16,57,29.30
2009,06,04,16,58,29.30
2009,06,04,16,59,29.30
2009,06,04,17,00,29.30
2009,06,04,17,01,29.30
2009,06,04,17,02,29.30
2009,06,04,17,03,29.20
2009,06,04,17,04,29.20
2009,06,04,17,05,29.10
2009,06,04,17,06,29.00
2009,06,04,17,07,28.90
2009,06,04,17,08,28.90
2009,06,04,17,09,28.90
2009,06,04,17,10,28.90
2009,06,04,17,11,28.90
2009,06,04,17,12,28.90
2009,06,04,17,13,28.90
2009,06,04,17,14,29.00
2009,06,04,17,15,29.10
2009,06,04,17,16,29.20
2009,06,04,17,17,29.30
2009,06,04,17,18,29.40
2009,06,04,17,19,29.40